Probability
0 0 0 0 0 0 0 0 0 0 0 0 0 0 0 0 0 0 0 0 0 0 0 0 0 0 0 0 0 0 0 0 0 0 0 0 0 0 0 0 0 0 0
0 0 0 0 0 0 0 0 0 0 0 0 0 0 0 0 0 0 0 0 0 0 0 0 0 0 0 0 0 0 0 0 0 0 0 0 0 0 0 0 0 0 0
0 0 0 0 0 0 0 0 0 0 0 0 0 0 0 0 0 0 0 0 0 0 0 0 0 0 0 0 0 0 0 0 0 0 0 0 0 0 0 0 0 0 0
0 0 0 0 0 0 0 0 0 0 0 0 0 0 0 0 0 0 0 0 0 0 0 0 0 0 0 0 0 0 0 0 0 0 0 0 0 0 0 0 0 0 0
0 0 0 0 0 0 0 0 0 0 0 0 0 0 0 0 0 0 0 0 0 0 0 0 0 0 0 0 0 0 0 0 0 0 0 0 0 0 0 0 0 0 0
0 0 0 0 0 0 0 0 0 0 0 0 0 0 0 0 0 0 0 0 0 0 0 0 0 0 0 0 0 0 0 0 0 0 0 0 0 0 0 0 0 0 0
0 0 0 0 0 0 0 0 0 0 0 0 0 0 0 0 0 0 0 0 0 0 0 0 0 0 0 0 0 0 0 0 0 0 0 0 0 0 0 0 0 0 0
0 0 0 0 0 0 0 0 0 0 0 0 0 0 0 0 0 0 0 0 0 0 0 0 0 0 0 0 0 0 0 0 0 0 0 0 0 0 0 0 0 0 0
0 0 0 0 0 0 0 0 0 0 0 0 0 0 0 0 0 0 0 0 0 0 0 0 0 0 0 0 0 0 0 0 0 0 0 0 0 0 0 0 0 0 0
0 0 0 0 0 0 0 0 0 0 0 0 0 0 0 0 0 0 0 0 0 0 0 0 0 0 0 0 0 0 0 0 0 0 0 0 0 0 0 0 0 0 0
0 0 0 0 0 0 0 0 0 0 0 0 0 0 0 0 0 0 0 0 0 0 0 0 0 0 0 0 0 0 0 0 0 0 0 0 0 0 0 0 0 0 0
0 0 0 0 0 0 0 0 0 0 0 0 0 0 0 0 0 0 0 0 0 0 0 0 0 0 0 0 0 0 0 0 0 0 0 0 0 0 0 0 0 0 0
0 0 0 0 0 0 0 0 0 0 0 0 0 0 0 0 0 0 0 0 0 0 0 0 0 0 0 0 0 0 0 0 0 0 0 0 0 0 0 0 0 0 0
0 0 0 0 0 0 0 0 0 0 0 0 0 0 0 0 0 0 0 0 0 0 0 0 0 0 0 0 0 0 0 0 0 0 0 0 0 0 0 0 0 0 0
0 0 0 0 0 0 0 0 0 0 0 0 0 0 0 0 0 0 0 0 0 0 0 0 0 0 0 0 0 0 0 0 0 0 0 0 0 0 0 0 0 0 0
0 0 0 0 0 0 0 0 0 0 0 0 0 0 0 0 0 0 0 0 0 0 0 0 0 0 0 0 0 0 0 0 0 0 0 0 0 0 0 0 0 0 0
0 0 0 0 0 0 0 0 0 0 0 0 0 0 0 0 0 0 0 0 0 0 0 0 0 0 0 0 0 0 0 0 0 0 0 0 0 0 0 0 0 0 0
0 0 0 0 0 0 0 0 0 0 0 0 0 0 0 0 0 0 0 0 0 0 0 0 0 0 0 0 0 0 0 0 0 0 0 0 0 0 0 0 0 0 0
0 0 0 0 0 0 0 0 0 0 0 0 0 0 0 0 0 0 0 0 0 0 0 0 0 0 0 0 0 0 0 0 0 0 0 0 0 0 0 0 0 0 0
0 0 0 0 0 0 0 0 0 0 0 0 0 0 0 0 0 0 0 0 0 0 0 0 0 0 0 0 0 0 0 0 0 0 0 0 0 0 0 0 0 0 0
0 0 0 0 0 0 0 0 0 0 0 0 0 0 0 0 0 0 0 0 0 0 0 0 0 0 0 0 0 0 0 0 0 0 0 0 0 0 0 0 0 0 0
0 0 0 0 0 0 0 0 0 0 0 0 0 0 0 0 0 0 0 0 0 0 0 0 0 0 0 0 0 0 0 0 0 0 0 0 0 0 0 0 0 0 0
0 0 0 0 0 0 0 0 0 0 0 0 0 0 0 0 0 0 0 0 0 0 0 0 0 0 0 0 0 0 0 0 0 0 0 0 0 0 0 0 0 0 0
0 0 0 0 0 0 0 0 0 0 0 0 0 0 0 0 0 0 0 0 0 0 0 0 0 0 0 0 0 0 0 0 0 0 0 0 0 0 0 0 0 0 0
0 0 0 0 0 0 0 0 0 0 0 0 0 0 0 0 0 0 0 0 0 0 0 0 0 0 0 0 0 0 0 0 0 0 0 0 0 0 0 0 0 0 0
0 0 0 0 0 0 0 0 0 0 0 0 0 0 0 0 0 0 0 0 0 0 0 0 0 0 0 0 0 0 0 0 0 0 0 0 0 0 0 0 0 0 0
Height
5837 5837 5837 5837 5837 5837 5837 5837 5837 5836 5836 5836 5835 5835 5834 5833 5833 5833 5832 5832 5831 5830 5829 5828 5827 5826 5825 5824 5823 5822 5821 5819 5818 5817 5815 5814 5812 5811 5810 5808 5807 5806 5804
5833 5833 5833 5833 5834 5834 5834 5834 5833 5833 5833 5832 5832 5831 5830 5830 5829 5829 5828 5828 5827 5826 5825 5824 5823 5822 5821 5819 5818 5817 5815 5814 5813 5811 5810 5808 5807 5805 5804 5802 5801 5799 5798
5830 5830 5830 5830 5830 5830 5830 5830 5830 5829 5829 5829 5828 5827 5827 5826 5825 5824 5824 5823 5822 5821 5820 5819 5818 5817 5816 5814 5813 5811 5810 5808 5807 5805 5804 5802 5800 5799 5797 5796 5794 5793 5791
5826 5826 5826 5826 5826 5826 5826 5826 5826 5825 5825 5824 5824 5823 5822 5822 5821 5820 5819 5819 5818 5817 5815 5814 5813 5812 5810 5809 5807 5806 5804 5802 5800 5799 5797 5796 5794 5792 5790 5789 5787 5785 5784
5822 5822 5822 5822 5822 5822 5822 5822 5821 5821 5821 5820 5819 5819 5818 5817 5817 5816 5815 5814 5813 5811 5810 5809 5808 5806 5805 5803 5801 5799 5798 5796 5794 5792 5790 5789 5787 5784 5783 5781 5779 5777 5776
5818 5818 5818 5818 5818 5818 5818 5817 5817 5816 5816 5815 5815 5814 5813 5812 5811 5810 5809 5808 5807 5806 5805 5803 5802 5800 5799 5797 5795 5793 5791 5789 5786 5784 5783 5781 5779 5776 5774 5772 5770 5769 5768
5813 5813 5813 5813 5813 5813 5813 5812 5812 5811 5811 5810 5810 5809 5808 5807 5806 5805 5804 5803 5802 5801 5799 5798 5796 5794 5792 5790 5788 5785 5783 5780 5779 5777 5774 5772 5770 5768 5766 5764 5762 5760 5758
5808 5808 5808 5808 5808 5808 5808 5807 5807 5806 5806 5805 5804 5803 5802 5801 5800 5799 5798 5797 5796 5794 5793 5791 5789 5787 5785 5783 5780 5778 5775 5773 5770 5768 5766 5763 5761 5759 5756 5754 5752 5750 5748
5804 5804 5803 5803 5803 5802 5802 5802 5801 5800 5800 5799 5798 5797 5796 5795 5793 5792 5791 5790 5789 5788 5786 5784 5782 5780 5778 5775 5773 5770 5768 5765 5762 5759 5756 5754 5751 5749 5746 5744 5742 5740 5738
5798 5798 5798 5798 5797 5797 5796 5796 5795 5794 5793 5793 5791 5790 5789 5788 5787 5785 5784 5783 5782 5780 5779 5776 5774 5772 5769 5766 5764 5761 5759 5756 5753 5750 5747 5744 5741 5738 5736 5733 5731 5728 5726
5792 5792 5792 5792 5791 5791 5790 5789 5789 5788 5787 5786 5785 5783 5782 5781 5779 5778 5776 5775 5773 5772 5770 5768 5765 5763 5760 5757 5754 5752 5749 5746 5743 5740 5737 5734 5731 5728 5725 5722 5719 5717 5715
5786 5786 5786 5785 5785 5784 5783 5782 5781 5780 5780 5778 5777 5776 5774 5773 5771 5770 5768 5766 5764 5763 5761 5758 5756 5753 5750 5748 5745 5742 5738 5735 5732 5729 5726 5723 5720 5717 5714 5711 5708 5706 5703
5780 5779 5779 5779 5778 5777 5776 5776 5774 5773 5772 5771 5770 5768 5767 5765 5763 5761 5760 5758 5755 5753 5751 5749 5746 5743 5741 5738 5735 5731 5728 5725 5722 5719 5715 5712 5708 5705 5702 5699 5697 5694 5692
5773 5772 5772 5771 5771 5770 5769 5768 5767 5766 5764 5763 5762 5760 5758 5757 5755 5753 5751 5749 5746 5744 5742 5740 5737 5734 5731 5728 5725 5721 5718 5715 5711 5708 5704 5700 5697 5693 5690 5687 5685 5682 5680
5766 5765 5764 5764 5763 5762 5761 5760 5759 5758 5756 5755 5753 5751 5750 5748 5746 5744 5742 5740 5738 5736 5733 5731 5728 5725 5722 5718 5715 5711 5708 5704 5701 5697 5693 5689 5685 5682 5679 5676 5673 5670 5668
5758 5757 5757 5756 5755 5754 5753 5752 5750 5749 5747 5746 5744 5743 5741 5739 5737 5735 5733 5731 5728 5726 5724 5721 5718 5715 5712 5709 5705 5702 5698 5694 5691 5686 5682 5678 5675 5671 5668 5665 5662 5659 5657
5750 5749 5749 5748 5747 5746 5745 5744 5742 5741 5739 5738 5736 5734 5733 5730 5728 5726 5724 5721 5719 5717 5714 5711 5709 5705 5702 5699 5695 5691 5688 5684 5680 5676 5672 5668 5664 5661 5658 5655 5651 5648 5646
5742 5741 5741 5740 5739 5738 5736 5735 5734 5733 5731 5730 5728 5726 5724 5722 5719 5717 5714 5712 5710 5707 5705 5702 5699 5696 5692 5689 5685 5681 5677 5674 5670 5666 5662 5659 5655 5651 5647 5644 5641 5637 5634
5733 5733 5732 5731 5730 5729 5728 5727 5725 5724 5723 5721 5719 5717 5715 5712 5710 5708 5705 5703 5701 5698 5695 5692 5689 5686 5682 5679 5675 5671 5668 5664 5660 5656 5653 5649 5645 5641 5638 5634 5630 5626 5622
5725 5724 5723 5722 5722 5721 5720 5718 5717 5716 5714 5712 5710 5708 5706 5703 5701 5699 5696 5694 5691 5688 5685 5683 5680 5676 5673 5669 5665 5662 5658 5655 5651 5647 5643 5639 5635 5632 5628 5624 5620 5616 5612
5715 5715 5714 5713 5713 5712 5711 5710 5708 5707 5705 5703 5701 5699 5696 5694 5691 5689 5687 5684 5681 5679 5676 5673 5670 5667 5663 5660 5656 5653 5649 5645 5642 5637 5634 5630 5626 5622 5618 5614 5610 5606 5601
5706 5706 5705 5704 5703 5703 5702 5701 5699 5698 5696 5694 5692 5689 5686 5684 5682 5679 5677 5674 5672 5669 5666 5664 5661 5657 5654 5650 5647 5644 5640 5636 5632 5628 5624 5620 5616 5612 5608 5604 5600 5595 5591
5696 5696 5695 5695 5694 5693 5692 5691 5690 5688 5686 5684 5681 5679 5676 5674 5672 5670 5667 5665 5662 5660 5657 5654 5651 5648 5645 5641 5637 5634 5630 5627 5623 5619 5615 5611 5607 5603 5599 5594 5590 5585 5580
5687 5686 5686 5685 5684 5684 5683 5682 5680 5678 5676 5674 5672 5669 5667 5664 5662 5660 5658 5655 5653 5650 5648 5645 5642 5638 5635 5632 5628 5625 5621 5617 5613 5609 5605 5601 5597 5593 5589 5585 5580 5575 5570
5677 5676 5676 5675 5675 5674 5673 5672 5670 5668 5667 5664 5662 5660 5658 5655 5653 5651 5648 5646 5644 5641 5638 5635 5632 5629 5626 5622 5619 5615 5612 5608 5604 5600 5596 5592 5588 5584 5579 5575 5570 5565 5560
5667 5667 5667 5666 5665 5664 5664 5662 5661 5659 5657 5655 5653 5651 5649 5646 5644 5642 5639 5637 5635 5632 5629 5626 5622 5619 5616 5613 5610 5606 5602 5598 5595 5591 5587 5583 5579 5575 5570 5565 5560 5555 5551
Wind_Speed
13 13 12 12 12 12 12 12 13 13 13 13 13 13 13 13 13 14 14 14 14 15 16 16 17 17 17 18 18 19 19 19 19 18 18 19 20 20 21 21 21 21 20
13 13 13 12 12 12 12 12 13 13 13 14 14 14 14 14 14 15 15 16 16 16 16 17 17 18 18 19 20 19 20 20 20 19 19 20 20 21 21 22 22 22 22
13 13 13 13 13 12 13 13 13 14 14 15 15 15 15 15 15 16 16 16 17 17 17 17 18 19 19 20 20 20 21 21 21 21 21 21 22 22 22 23 23 23 23
14 14 13 13 13 13 13 13 14 14 15 15 15 15 15 15 16 16 16 17 18 18 18 18 19 19 20 20 20 21 22 22 23 23 23 23 23 24 24 24 24 24 25
14 14 13 13 13 14 14 14 15 15 15 16 15 15 15 16 16 17 17 18 19 19 18 19 19 19 20 21 21 22 22 23 24 24 24 25 25 25 25 26 26 26 27
15 14 15 15 15 15 15 15 15 15 15 16 16 16 16 17 17 18 18 19 19 19 19 20 20 21 22 22 22 23 24 24 25 25 26 26 27 27 26 27 27 27 28
15 16 16 16 16 16 16 16 16 16 16 16 17 17 18 19 20 20 20 20 20 20 21 21 22 22 23 24 24 25 26 26 26 27 28 28 28 28 28 29 29 29 30
16 16 16 16 16 16 17 17 17 18 18 18 19 19 20 21 21 21 21 21 21 22 22 23 23 24 25 26 27 27 27 28 28 29 29 29 29 29 30 30 31 31 32
17 16 17 17 17 17 18 18 19 19 20 20 20 21 21 22 22 22 23 23 23 24 24 25 25 26 27 28 29 29 29 29 30 30 31 31 31 31 32 32 33 33 33
18 18 18 19 19 19 20 19 20 20 21 21 22 22 23 23 23 24 24 25 25 26 26 27 27 28 29 29 30 30 30 31 31 31 32 32 32 33 33 34 35 35 35
20 20 20 20 20 20 21 21 21 21 22 23 23 23 24 24 25 25 26 26 27 28 28 28 29 29 30 30 31 31 31 32 32 32 33 33 34 34 35 36 36 36 36
21 21 21 21 21 21 21 22 22 23 23 23 24 25 25 26 26 26 27 28 28 28 29 29 29 29 30 31 32 32 32 33 34 34 34 35 35 36 36 36 36 37 37
21 21 22 22 22 22 23 23 23 24 25 25 25 26 26 27 27 27 27 28 28 29 29 29 29 30 31 32 32 32 33 33 34 34 35 36 37 37 37 37 37 37 37
22 23 23 23 23 24 24 24 24 26 26 26 26 26 26 27 27 28 28 28 28 29 29 29 30 31 32 32 32 33 33 33 34 34 35 36 37 37 37 37 37 37 37
23 24 24 24 25 25 25 25 26 27 27 27 26 27 27 27 28 28 28 29 29 30 30 30 31 31 32 32 33 33 34 34 34 35 36 36 36 36 36 37 36 36 36
24 24 24 25 25 26 26 26 26 26 27 27 27 27 28 29 29 29 29 29 30 30 30 31 32 32 32 33 34 34 34 34 34 35 35 36 35 35 35 35 35 36 36
26 25 24 25 25 26 26 26 25 26 26 27 27 28 28 29 29 30 30 30 30 30 31 32 32 33 33 34 34 34 34 34 35 35 35 35 34 34 34 35 35 36 36
27 26 26 25 25 25 25 26 26 25 25 26 28 29 29 29 30 31 31 30 30 31 32 32 32 33 34 34 34 34 34 34 35 35 35 35 35 35 35 35 36 37 37
27 27 27 27 26 26 26 26 26 26 26 27 28 29 30 30 31 31 31 31 31 32 32 33 33 34 34 34 34 33 33 33 34 34 35 35 35 35 35 36 37 38 39
28 28 28 27 26 25 25 26 27 27 28 29 30 30 31 31 31 31 31 31 32 33 33 33 33 33 33 33 33 32 32 33 34 35 35 35 35 35 35 36 36 37 38
29 28 28 28 27 26 26 26 27 28 29 30 30 31 31 31 31 31 32 32 32 32 33 33 33 33 33 33 32 32 33 34 34 35 34 35 35 35 36 36 37 38 39
29 29 29 28 28 28 28 28 28 29 29 30 31 31 31 31 31 32 32 32 32 32 32 32 32 32 32 33 33 33 34 34 35 35 35 35 35 36 36 37 37 38 39
29 29 30 29 29 29 30 30 30 31 31 31 31 31 31 31 31 31 31 31 32 31 31 32 32 32 33 33 34 34 34 34 34 35 35 34 35 36 36 37 37 38 39
29 29 29 29 28 29 29 30 30 31 31 30 30 30 30 30 30 30 31 31 31 31 31 31 31 32 32 33 33 34 34 34 35 35 34 34 35 36 37 37 38 38 39
29 29 30 29 29 29 29 30 30 31 31 31 30 30 30 30 30 30 30 29 29 29 30 31 31 31 32 32 33 33 34 35 35 35 34 34 35 36 36 37 38 38 38
29 29 29 29 29 30 30 31 32 32 31 31 31 31 31 30 30 29 29 29 29 30 31 31 31 32 32 33 33 34 34 35 35 35 35 35 35 36 36 37 37 37 37
Wind_Direction
265 268 269 269 271 274 273 270 272 274 275 278 278 281 279 277 277 278 278 282 284 287 289 290 291 292 291 291 293 293 294 294 293 291 291 289 287 287 288 288 289 290 289
266 268 269 270 270 272 272 271 273 275 275 277 278 278 278 278 278 279 280 282 284 287 289 290 291 291 290 291 292 292 294 295 295 294 292 290 288 289 290 289 288 288 288
266 268 268 268 268 270 274 274 275 277 278 280 279 278 278 280 282 283 284 286 287 288 289 289 290 291 291 292 292 292 293 293 293 294 294 293 291 290 290 290 288 287 288
265 267 268 267 269 271 273 274 276 278 279 280 280 278 278 281 284 285 286 288 289 289 289 290 292 293 293 293 293 293 293 292 292 293 293 293 292 291 290 289 288 287 287
268 268 266 266 269 271 273 275 276 278 279 280 281 280 281 284 286 287 287 288 290 290 291 292 293 294 294 293 293 293 293 292 292 293 292 292 292 291 290 289 288 287 286
266 269 268 268 270 272 272 275 277 278 278 279 280 280 282 284 286 288 289 289 291 290 291 292 293 293 294 294 294 294 294 293 293 293 292 292 292 291 290 290 289 289 288
267 268 270 271 271 272 274 275 277 278 278 279 280 281 283 284 285 285 285 287 289 289 290 291 292 294 295 295 294 295 295 294 294 294 293 292 291 290 289 289 289 289 288
271 272 273 274 276 275 277 278 279 279 278 278 280 281 283 284 284 284 284 285 287 287 289 291 294 296 296 295 296 296 296 295 294 294 293 292 291 289 289 289 289 289 288
273 274 274 274 276 278 278 278 280 280 280 279 279 280 282 283 284 284 284 284 285 287 290 291 294 295 296 295 296 296 296 295 294 294 294 294 293 291 290 289 289 288 288
274 274 275 275 276 278 279 278 278 279 280 280 280 280 282 283 283 283 284 285 286 288 289 291 292 293 294 295 295 295 295 295 294 294 294 294 294 293 291 290 289 289 288
273 274 276 276 277 278 278 278 278 279 280 281 281 281 282 283 284 283 283 285 288 289 290 291 291 291 292 294 295 296 295 295 295 294 294 295 295 294 292 291 290 290 289
273 275 277 276 276 277 278 278 279 280 281 283 284 284 284 284 285 285 285 286 288 290 291 291 292 292 293 294 295 295 296 296 296 295 295 295 294 293 292 291 290 290 290
273 276 276 275 277 277 277 279 280 280 282 282 284 285 285 285 286 286 287 288 290 291 292 292 292 293 294 295 296 297 298 298 297 296 296 296 295 294 293 291 291 290 290
272 276 276 276 279 280 278 279 280 282 283 283 284 285 286 286 287 287 288 289 290 293 293 292 293 294 296 296 297 298 298 299 299 298 298 297 296 295 293 292 291 290 290
275 277 277 277 280 280 280 279 280 282 283 283 283 284 285 286 287 288 289 289 290 292 293 293 294 296 297 297 297 299 300 300 300 300 300 299 299 297 294 293 293 292 291
275 277 278 278 280 281 281 281 279 280 282 282 283 284 285 286 287 289 289 290 291 292 293 294 295 296 297 298 299 300 301 301 302 302 301 301 300 298 297 296 295 294 293
274 276 277 280 281 280 280 281 281 281 281 281 283 284 285 286 286 287 290 291 292 293 294 295 296 296 297 299 300 301 302 302 303 302 302 303 301 299 298 298 297 296 295
274 275 276 278 280 280 281 281 281 282 282 282 283 284 285 286 286 288 289 290 292 292 294 296 297 297 298 299 300 301 302 303 303 303 302 303 302 302 301 300 299 299 298
273 275 275 277 278 280 282 283 284 285 285 286 286 285 286 287 286 287 289 291 292 293 295 296 297 298 299 300 301 301 302 303 303 303 303 302 303 302 302 302 302 301 301
273 275 275 276 278 280 282 284 285 286 286 288 288 288 288 287 287 289 291 292 293 294 295 296 297 298 299 300 301 302 302 303 304 304 304 303 302 303 303 304 304 304 304
273 274 275 276 278 279 282 284 286 287 287 287 288 288 287 287 287 288 290 291 292 293 294 295 297 298 299 300 301 302 303 304 305 306 305 304 303 304 304 305 305 305 306
271 272 274 276 277 279 280 282 286 287 288 287 288 289 288 287 287 287 288 289 290 292 293 294 296 299 300 300 302 302 303 304 304 305 305 305 304 304 305 305 306 306 306
270 271 274 274 276 277 278 281 283 285 287 288 289 290 290 288 287 288 288 288 289 291 293 295 297 299 300 301 302 303 304 305 305 305 305 306 306 306 307 308 308 308 309
271 272 274 275 276 276 279 281 283 285 288 289 290 292 292 290 289 290 290 290 290 292 295 296 297 299 300 300 301 302 304 305 305 305 306 306 308 308 308 309 310 310 311
271 272 274 276 278 279 280 283 284 285 287 290 291 292 293 292 292 292 291 291 292 294 295 296 297 299 301 301 302 303 304 305 306 306 306 306 309 309 309 310 310 311 311
272 273 276 278 279 279 281 283 285 286 287 289 290 291 292 291 292 292 292 292 294 296 298 297 297 298 300 302 302 303 303 304 305 305 305 306 307 309 310 311 311 311 311